Location: Plainartige
(45.6866°N, 1.7993°E)
Time: 02:03:13
(UTC+00:00)

RS-15 - Pass Details

Date: 28 June 2022
Orbit: 1881 x 2163 km, 64.8° (Epoch: 10 August)

Event Time Altitude Azimuth Distance (km) Brightness Sun altitude
Rises 01:31:36 0° 322° (NW) 5,699 10.9 -17.7°
Reaches altitude 10° 01:35:23 10° 316° (NW) 4,685 10.3 -17.4°
Maximum altitude 01:46:15 40° 253° (WSW) 2,878 8.6 -16.6°
Enters shadow 01:53:54 19° 199° (SSW) 3,829 8.9 -16.0°
